Location: Armidale
(30.5016°S, 151.6662°E)
Time: 23:06:06
(UTC+10:00)

Hubble Space Telescope - Pass Details

Date: 09 August 2020
Orbit: 536 x 540 km, 28.5° (Epoch: 20 September)

Event Time Altitude Azimuth Distance (km) Brightness Sun altitude
Rises 18:25:27 0° 276° (W) 2,682 6.4 -13.5°
Reaches altitude 10° 18:27:43 10° 279° (W) 1,791 4.9 -14.0°
Maximum altitude 18:31:50 67° 1° (N) 584 0.9 -14.8°
Enters shadow 18:34:03 26° 77° (ENE) 1,081 1.8 -15.3°
